Latham, NY

2:01 AM EST on February 09, 2016 (GMT -0500)
Albany International

Weather History for KALB - November, 2011

Change the Weather History Date:

Wednesday, November 2, 2011

  Actual Average Record
Temperature  
Mean Temperature 43 °F 44 °F  
Max Temperature 57 °F 53 °F 82 °F (1950)
Min Temperature 28 °F 35 °F 19 °F (1976)
Degree Days  
Heating Degree Days 22 21  
Month to date heating degree days 45 42  
Since 1 July heating degree days 491 687  
Cooling Degree Days 0 0  
Month to date cooling degree days 0 0  
Year to date cooling degree days 794 598  
Moisture  
Dew Point 33 °F    
Average Humidity 70    
Maximum Humidity 96    
Minimum Humidity 43    
Precipitation  
Precipitation 0.00 in 0.12 in 1.66 in (1897)
Month to date precipitation 0.00 0.23  
Year to date precipitation 48.06 33.36  
Snow  
Snow 0.00 in 0.10 in 0.10 in (1911)
Month to date snowfall 0.0 0.1  
Since 1 July snowfall 5.4 0.4  
Since 1 September snowfall 5.4 0.4  
Snow Depth 0.00 in    
Sea Level Pressure  
Sea Level Pressure 30.33 in    
Wind  
Wind Speed 5 mph (South)    
Max Wind Speed 15 mph    
Max Gust Speed 17 mph    
Visibility 10 miles    
Events Fog    
T = Trace of Precipitation, MM = Missing Value Source: NWS Daily Summary

Daily Weather History Graph

Daily Weather History Graph

Search for Another Location

Airport or City:

Trip Planner

Search our weather history database for the weather conditions in past years. The results will help you decide how hot, cold, wet, or windy it might be!

Date:

Astronomy

Nov. 02, 2011 Rise Set
Actual Time 7:30 AM EDT 5:46 PM EDT
Civil Twilight 7:00 AM EDT 6:16 PM EDT
Nautical Twilight 6:27 AM EDT 6:49 PM EDT
Astronomical Twilight 5:54 AM EDT 7:22 PM EDT
Moon 1:48 PM EDT (11/2) No Moon Set
Length of Visible Light 11h 15m
Length of Day
10h 16m
Waxing Crescent, 50% of the Moon is Illuminated
Nov 2
Waxing Crescent
Nov 2
First Quarter
Nov 10
Full
Nov 18
Last Quarter
Nov 25
New

Hourly Weather History & Observations

Time (EDT) Temp. Windchill Dew Point Humidity Pressure Visibility Wind Dir Wind Speed Gust Speed Precip Events Conditions
12:51 AM 33.1 °F - 32.0 °F 96% 30.36 in 10.0 mi Calm Calm - N/A   Clear
1:51 AM 32.0 °F - 30.9 °F 96% 30.35 in 10.0 mi Calm Calm - N/A   Clear
2:51 AM 30.0 °F - 28.9 °F 96% 30.37 in 10.0 mi Calm Calm - N/A Fog Patches of Fog
3:51 AM 30.0 °F - 28.9 °F 96% 30.37 in 10.0 mi Calm Calm - N/A Fog Patches of Fog
4:51 AM 30.0 °F - 28.0 °F 92% 30.38 in 10.0 mi Calm Calm - N/A Fog Patches of Fog
5:51 AM 28.0 °F - 27.0 °F 96% 30.40 in 10.0 mi Calm Calm - N/A   Partly Cloudy
6:51 AM 30.0 °F - 28.0 °F 92% 30.39 in 10.0 mi Calm Calm - N/A Fog Patches of Fog
7:51 AM 30.0 °F - 28.9 °F 96% 30.41 in 10.0 mi Calm Calm - N/A Fog Patches of Fog
8:51 AM 34.0 °F - 30.9 °F 89% 30.42 in 10.0 mi Calm Calm - N/A Fog Patches of Fog
9:51 AM 39.0 °F 35.7 °F 35.1 °F 86% 30.42 in 10.0 mi SSE 4.6 mph - N/A   Clear
10:51 AM 44.1 °F 39.0 °F 36.0 °F 73% 30.40 in 10.0 mi South 9.2 mph - N/A   Clear
11:51 AM 48.0 °F - 36.0 °F 63% 30.38 in 10.0 mi SSE 6.9 mph - N/A   Clear
12:51 PM 51.1 °F - 36.0 °F 56% 30.34 in 10.0 mi SSE 8.1 mph - N/A   Scattered Clouds
1:51 PM 54.0 °F - 36.0 °F 51% 30.31 in 10.0 mi SSE 9.2 mph - N/A   Scattered Clouds
2:51 PM 55.9 °F - 36.0 °F 47% 30.29 in 10.0 mi South 11.5 mph - N/A   Scattered Clouds
3:51 PM 57.0 °F - 36.0 °F 45% 30.27 in 10.0 mi South 10.4 mph - N/A   Scattered Clouds
4:51 PM 55.9 °F - 36.0 °F 47% 30.26 in 10.0 mi South 9.2 mph - N/A   Mostly Cloudy
5:51 PM 53.1 °F - 35.1 °F 50% 30.26 in 10.0 mi South 5.8 mph - N/A   Scattered Clouds
6:51 PM 50.0 °F - 35.1 °F 57% 30.27 in 10.0 mi SE 3.5 mph - N/A   Partly Cloudy
7:51 PM 48.9 °F - 35.1 °F 59% 30.26 in 10.0 mi SSE 3.5 mph - N/A   Clear
8:51 PM 48.0 °F - 34.0 °F 58% 30.24 in 10.0 mi SSE 5.8 mph - N/A   Clear
9:51 PM 46.0 °F 43.1 °F 34.0 °F 63% 30.24 in 10.0 mi South 5.8 mph - N/A   Clear
10:51 PM 46.0 °F 41.4 °F 35.1 °F 66% 30.23 in 10.0 mi South 9.2 mph - N/A   Clear
11:51 PM 46.0 °F 42.5 °F 35.1 °F 66% 30.22 in 10.0 mi South 6.9 mph - N/A   Partly Cloudy